| time (UTC) | temp C | wind direction | speed KPH | gust KPH | rain 1hr cm | rain 24hr cm | rain mn cm | humidity % | barometer mb |
| 20260505035519 | 8 | 79 | 4.8 | 11.3 | 0.00 | 0.00 | 0.00 | 61 | 1013.0 |
| 20260505034519 | 8 | 79 | 6.4 | 11.3 | 0.00 | 0.00 | 0.00 | 60 | 1012.9 |
| 20260505033519 | 8 | 68 | 8.0 | 16.1 | 0.00 | 0.00 | 0.00 | 58 | 1012.8 |
| 20260505032519 | 8 | 51 | 11.3 | 16.1 | 0.00 | 0.00 | 0.00 | 62 | 1012.7 |
| 20260505031520 | 8 | 54 | 12.9 | 14.5 | 0.00 | 0.00 | 0.00 | 64 | 1012.6 |
| 20260505030520 | 8 | 58 | 11.3 | 14.5 | 0.00 | 0.00 | 0.00 | 58 | 1012.7 |
| 20260505025520 | 8 | 354 | 6.4 | 14.5 | 0.00 | 0.00 | 0.00 | 64 | 1012.7 |
| 20260505023523 | 8 | 0 | 1.6 | 4.8 | 0.00 | 0.00 | 0.00 | 58 | 1012.2 |
| 20260505022523 | 9 | 343 | 3.2 | 4.8 | 0.00 | 0.00 | 0.00 | 58 | 1012.0 |
| 20260505021524 | 10 | 329 | 1.6 | 3.2 | 0.00 | 0.00 | 0.00 | 52 | 1011.9 |
| 20260505020524 | 10 | 282 | 1.6 | 4.8 | 0.00 | 0.00 | 0.00 | 48 | 1011.7 |
| 20260505015524 | 11 | 333 | 1.6 | 3.2 | 0.00 | 0.00 | 0.00 | 47 | 1011.5 |
| 20260505014521 | 11 | 56 | 9.7 | 12.9 | 0.00 | 0.00 | 0.00 | 45 | 1011.4 |
| 20260505013518 | 11 | 41 | 12.9 | 24.1 | 0.00 | 0.00 | 0.00 | 45 | 1011.4 |
| 20260505012522 | 12 | 40 | 11.3 | 16.1 | 0.00 | 0.00 | 0.00 | 41 | 1011.3 |
| 20260505011522 | 12 | 35 | 9.7 | 14.5 | 0.00 | 0.00 | 0.00 | 42 | 1011.1 |
| 20260505010522 | 12 | 360 | 6.4 | 12.9 | 0.00 | 0.00 | 0.00 | 40 | 1011.1 |
| 20260505005525 | 13 | 334 | 3.2 | 4.8 | 0.00 | 0.00 | 0.00 | 35 | 1010.9 |
| 20260505004519 | 13 | 303 | 9.7 | 20.9 | 0.00 | 0.00 | 0.00 | 35 | 1010.9 |
| 20260505003542 | 13 | 296 | 9.7 | 12.9 | 0.00 | 0.00 | 0.00 | 36 | 1011.0 |
| 20260505002603 | 13 | 289 | 8.0 | 11.3 | 0.00 | 0.00 | 0.00 | 34 | 1010.9 |
| 20260505001523 | 13 | 276 | 8.0 | 9.7 | 0.00 | 0.00 | 0.00 | 33 | 1010.9 |
| 20260505000517 | 13 | 289 | 8.0 | 12.9 | 0.00 | 0.00 | 0.00 | 33 | 1010.9 |
| 20260504235517 | 13 | 311 | 4.8 | 11.3 | 0.00 | 0.00 | 0.00 | 32 | 1010.9 |
| 20260504234526 | 14 | 338 | 1.6 | 6.4 | 0.00 | 0.00 | 0.00 | 30 | 1011.0 |
| 20260504233526 | 14 | 261 | 1.6 | 4.8 | 0.00 | 0.00 | 0.00 | 31 | 1011.0 |
| 20260504232546 | 14 | 14 | 1.6 | 4.8 | 0.00 | 0.00 | 0.00 | 31 | 1011.1 |
| 20260504231518 | 14 | 350 | 6.4 | 9.7 | 0.00 | 0.00 | 0.00 | 31 | 1011.0 |
| 20260504230518 | 14 | 254 | 11.3 | 19.3 | 0.00 | 0.00 | 0.00 | 30 | 1010.9 |
| 20260504225518 | 14 | 252 | 8.0 | 14.5 | 0.00 | 0.00 | 0.00 | 31 | 1010.9 |
| 20260504224518 | 14 | 276 | 3.2 | 11.3 | 0.00 | 0.00 | 0.00 | 31 | 1010.9 |
| 20260504223518 | 13 | 259 | 8.0 | 12.9 | 0.00 | 0.00 | 0.00 | 32 | 1011.2 |
| 20260504222519 | 13 | 257 | 9.7 | 19.3 | 0.00 | 0.00 | 0.00 | 32 | 1011.3 |
| 20260504221539 | 13 | 284 | 6.4 | 11.3 | 0.00 | 0.00 | 0.00 | 33 | 1011.4 |
| 20260504220528 | 13 | 313 | 3.2 | 4.8 | 0.00 | 0.00 | 0.00 | 33 | 1011.5 |
| 20260504215548 | 13 | 328 | 4.8 | 8.0 | 0.00 | 0.00 | 0.00 | 34 | 1011.8 |
| 20260504214519 | 13 | 275 | 8.0 | 16.1 | 0.00 | 0.00 | 0.00 | 35 | 1011.9 |
| 20260504213540 | 13 | 266 | 9.7 | 17.7 | 0.00 | 0.00 | 0.00 | 35 | 1012.0 |
| 20260504212519 | 13 | 255 | 4.8 | 8.0 | 0.00 | 0.00 | 0.00 | 35 | 1012.1 |
| 20260504211520 | 13 | 282 | 4.8 | 9.7 | 0.00 | 0.00 | 0.00 | 35 | 1012.4 |
| 20260504210529 | 13 | 206 | 1.6 | 9.7 | 0.00 | 0.00 | 0.00 | 35 | 1012.6 |
| 20260504205540 | 13 | 351 | 6.4 | 9.7 | 0.00 | 0.00 | 0.00 | 36 | 1012.7 |
| 20260504204540 | 13 | 290 | 6.4 | 9.7 | 0.00 | 0.00 | 0.00 | 36 | 1012.9 |
| 20260504203540 | 13 | 299 | 8.0 | 14.5 | 0.00 | 0.00 | 0.00 | 36 | 1013.0 |
| 20260504202521 | 12 | 304 | 12.9 | 20.9 | 0.00 | 0.00 | 0.00 | 37 | 1013.2 |
| 20260504201518 | 12 | 300 | 12.9 | 19.3 | 0.00 | 0.00 | 0.00 | 37 | 1013.4 |
| 20260504200541 | 12 | 311 | 9.7 | 14.5 | 0.00 | 0.00 | 0.00 | 40 | 1013.6 |
| 20260504195518 | 12 | 300 | 12.9 | 17.7 | 0.00 | 0.00 | 0.00 | 41 | 1013.7 |
| 20260504194538 | 12 | 343 | 11.3 | 22.5 | 0.00 | 0.00 | 0.00 | 39 | 1013.6 |
| 20260504193519 | 12 | 10 | 11.3 | 19.3 | 0.00 | 0.00 | 0.00 | 34 | 1013.4 |
| 20260504192519 | 12 | 357 | 11.3 | 16.1 | 0.00 | 0.00 | 0.00 | 33 | 1013.5 |
| 20260504191519 | 12 | 359 | 11.3 | 17.7 | 0.00 | 0.00 | 0.00 | 32 | 1013.6 |
| 20260504190520 | 13 | 292 | 12.9 | 17.7 | 0.00 | 0.00 | 0.00 | 31 | 1013.5 |
| 20260504185520 | 14 | 326 | 11.3 | 17.7 | 0.00 | 0.00 | 0.00 | 29 | 1013.5 |
| 20260504184517 | 14 | 324 | 14.5 | 25.7 | 0.00 | 0.00 | 0.00 | 29 | 1013.6 |
| 20260504183537 | 13 | 323 | 11.3 | 19.3 | 0.00 | 0.00 | 0.00 | 29 | 1013.8 |
| 20260504182520 | 14 | 302 | 14.5 | 24.1 | 0.00 | 0.00 | 0.00 | 29 | 1013.9 |
| 20260504181538 | 14 | 294 | 17.7 | 30.6 | 0.00 | 0.00 | 0.00 | 27 | 1014.0 |
| 20260504180518 | 13 | 304 | 12.9 | 24.1 | 0.00 | 0.00 | 0.00 | 28 | 1014.1 |
| 20260504175538 | 13 | 300 | 14.5 | 22.5 | 0.00 | 0.00 | 0.00 | 29 | 1014.1 |
| 20260504174518 | 13 | 320 | 14.5 | 24.1 | 0.00 | 0.00 | 0.00 | 30 | 1014.2 |
| 20260504173558 | 13 | 293 | 17.7 | 32.2 | 0.00 | 0.00 | 0.00 | 30 | 1014.2 |
| 20260504172522 | 13 | 327 | 14.5 | 20.9 | 0.00 | 0.00 | 0.00 | 30 | 1014.4 |
| 20260504171539 | 13 | 326 | 12.9 | 19.3 | 0.00 | 0.00 | 0.00 | 32 | 1014.5 |
| 20260504170539 | 12 | 311 | 12.9 | 20.9 | 0.00 | 0.00 | 0.00 | 33 | 1014.5 |
| 20260504150521 | 10 | 349 | 9.7 | 16.1 | 0.00 | 0.00 | 0.00 | 43 | 1015.9 |
| 20260504140519 | 10 | 358 | 9.7 | 16.1 | 0.00 | 0.00 | 0.00 | 48 | 1015.6 |
| 20260504130517 | 6 | 260 | 6.4 | 11.3 | 0.00 | 0.00 | 0.00 | 64 | 1015.3 |
| 20260504110520 | 6 | 139 | 11.3 | 17.7 | 0.00 | 0.00 | 0.00 | 62 | 1015.3 |
| 20260504100517 | 6 | 273 | 25.7 | 38.6 | 0.00 | 0.00 | 0.00 | 60 | 1015.7 |
| 20260504081528 | 1 | 137 | 3.2 | 6.4 | 0.00 | 0.00 | 0.00 | 71 | 1015.9 |
| 20260504080522 | 2 | 193 | 6.4 | 9.7 | 0.00 | 0.00 | 0.00 | 65 | 1016.0 |
| 20260504050532 | 8 | 109 | 3.2 | 4.8 | 0.00 | 0.00 | 0.00 | 48 | 1016.8 |
| 20260504045532 | 8 | 181 | 4.8 | 6.4 | 0.00 | 0.00 | 0.00 | 47 | 1016.9 |
| 20260504044532 | 8 | 191 | 3.2 | 4.8 | 0.00 | 0.00 | 0.00 | 44 | 1017.0 |
| 20260504043532 | 8 | 325 | 1.6 | 4.8 | 0.00 | 0.00 | 0.00 | 40 | 1017.0 |
| 20260504042517 | 8 | 103 | 3.2 | 4.8 | 0.00 | 0.00 | 0.00 | 51 | 1017.0 |
| 20260504041518 | 8 | 129 | 4.8 | 6.4 | 0.00 | 0.00 | 0.00 | 47 | 1017.0 |
| 20260504040538 | 8 | 150 | 6.4 | 6.4 | 0.00 | 0.00 | 0.00 | 49 | 1017.0 |